| time (UTC) | temp C | wind direction | speed KPH | gust KPH | rain 1hr cm | rain 24hr cm | rain mn cm | humidity % | barometer mb |
| 20260903100013 | 13 | 281 | 6.4 | 8.0 | 0.00 | 0.00 | 0.00 | 84 | 1008.1 |
| 20260903094512 | 13 | 262 | 4.8 | 9.7 | 0.00 | 0.00 | 0.00 | 84 | 1007.9 |
| 20260903093011 | 13 | 269 | 6.4 | 11.3 | 0.00 | 0.00 | 0.00 | 85 | 1007.9 |
| 20260903091508 | 13 | 246 | 3.2 | 9.7 | 0.00 | 0.00 | 0.00 | 84 | 1007.9 |
| 20260903090006 | 14 | 203 | 4.8 | 9.7 | 0.00 | 0.00 | 0.00 | 84 | 1007.9 |
| 20260903084506 | 14 | 208 | 6.4 | 9.7 | 0.00 | 0.00 | 0.00 | 85 | 1007.9 |
| 20260903083048 | 14 | 204 | 6.4 | 9.7 | 0.00 | 0.00 | 0.00 | 85 | 1007.8 |
| 20260903081547 | 14 | 228 | 3.2 | 6.4 | 0.00 | 0.00 | 0.00 | 84 | 1007.7 |
| 20260903080028 | 14 | 195 | 3.2 | 8.0 | 0.00 | 0.00 | 0.00 | 84 | 1007.6 |
| 20260903074528 | 14 | 173 | 3.2 | 9.7 | 0.00 | 0.00 | 0.00 | 85 | 1007.5 |
| 20260903073029 | 15 | 233 | 14.5 | 17.7 | 0.00 | 0.00 | 0.00 | 85 | 1007.2 |
| 20260903071508 | 15 | 232 | 17.7 | 24.1 | 0.00 | 0.00 | 0.00 | 85 | 1006.9 |
| 20260903070054 | 15 | 257 | 14.5 | 22.5 | 0.00 | 0.00 | 0.00 | 83 | 1006.8 |
| 20260903064550 | 15 | 231 | 16.1 | 24.1 | 0.00 | 0.00 | 0.00 | 81 | 1006.8 |
| 20260903063032 | 15 | 271 | 6.4 | 20.9 | 0.00 | 0.00 | 0.00 | 79 | 1007.0 |
| 20260903061549 | 16 | 258 | 12.9 | 30.6 | 0.00 | 0.00 | 0.00 | 78 | 1007.0 |
| 20260903060013 | 16 | 242 | 20.9 | 35.4 | 0.00 | 0.00 | 0.00 | 78 | 1006.5 |
| 20260903054517 | 15 | 239 | 17.7 | 29.0 | 0.00 | 0.00 | 0.00 | 81 | 1006.4 |
| 20260903053054 | 16 | 241 | 30.6 | 46.7 | 0.00 | 0.00 | 0.00 | 77 | 1006.3 |
| 20260903051553 | 16 | 257 | 35.4 | 45.1 | 0.00 | 0.00 | 0.00 | 75 | 1006.4 |
| 20260903050039 | 17 | 269 | 25.7 | 41.8 | 0.00 | 0.00 | 0.00 | 74 | 1006.7 |
| 20260903044545 | 17 | 262 | 29.0 | 40.2 | 0.00 | 0.00 | 0.00 | 74 | 1006.5 |
| 20260903043040 | 16 | 215 | 24.1 | 30.6 | 0.00 | 0.00 | 0.00 | 76 | 1006.6 |
| 20260903041546 | 16 | 211 | 25.7 | 37.0 | 0.00 | 0.00 | 0.00 | 76 | 1006.6 |
| 20260903040037 | 16 | 205 | 20.9 | 29.0 | 0.00 | 0.00 | 0.00 | 75 | 1006.8 |
| 20260903034536 | 17 | 211 | 9.7 | 16.1 | 0.00 | 0.00 | 0.00 | 74 | 1006.7 |
| 20260903033034 | 17 | 201 | 12.9 | 30.6 | 0.00 | 0.00 | 0.00 | 69 | 1006.7 |
| 20260903031534 | 17 | 191 | 12.9 | 32.2 | 0.00 | 0.00 | 0.00 | 69 | 1006.7 |
| 20260903030017 | 17 | 235 | 16.1 | 24.1 | 0.00 | 0.00 | 0.00 | 68 | 1006.5 |
| 20260903024517 | 17 | 222 | 22.5 | 40.2 | 0.00 | 0.00 | 0.00 | 66 | 1006.3 |
| 20260903023118 | 17 | 250 | 27.4 | 37.0 | 0.00 | 0.00 | 0.00 | 68 | 1006.2 |
| 20260903021559 | 16 | 256 | 19.3 | 27.4 | 0.00 | 0.00 | 0.00 | 71 | 1006.2 |
| 20260903020058 | 17 | 269 | 17.7 | 35.4 | 0.00 | 0.00 | 0.00 | 69 | 1006.3 |
| 20260903014606 | 18 | 271 | 19.3 | 32.2 | 0.00 | 0.00 | 0.00 | 62 | 1006.3 |
| 20260903013059 | 18 | 269 | 29.0 | 40.2 | 0.00 | 0.00 | 0.00 | 59 | 1006.3 |
| 20260903011611 | 18 | 264 | 30.6 | 45.1 | 0.00 | 0.00 | 0.00 | 58 | 1006.2 |
| 20260903010101 | 18 | 273 | 29.0 | 38.6 | 0.00 | 0.00 | 0.00 | 57 | 1006.0 |
| 20260903004544 | 18 | 267 | 35.4 | 57.9 | 0.00 | 0.00 | 0.00 | 55 | 1005.9 |
| 20260903003100 | 19 | 270 | 38.6 | 51.5 | 0.00 | 0.00 | 0.00 | 54 | 1005.8 |
| 20260903001553 | 18 | 263 | 35.4 | 46.7 | 0.00 | 0.00 | 0.00 | 56 | 1005.9 |
| 20260903000046 | 18 | 280 | 22.5 | 38.6 | 0.00 | 0.00 | 0.00 | 57 | 1006.1 |
| 20260902234523 | 20 | 256 | 32.2 | 45.1 | 0.00 | 0.00 | 0.00 | 49 | 1005.9 |
| 20260902233023 | 20 | 277 | 35.4 | 56.3 | 0.00 | 0.00 | 0.00 | 46 | 1005.9 |
| 20260902231504 | 21 | 268 | 35.4 | 57.9 | 0.00 | 0.00 | 0.00 | 45 | 1006.0 |
| 20260902230004 | 20 | 264 | 25.7 | 41.8 | 0.00 | 0.00 | 0.00 | 50 | 1006.1 |
| 20260902224547 | 20 | 264 | 19.3 | 37.0 | 0.00 | 0.00 | 0.00 | 51 | 1006.1 |
| 20260902223047 | 20 | 281 | 35.4 | 61.2 | 0.00 | 0.00 | 0.00 | 52 | 1005.7 |
| 20260902221532 | 23 | 253 | 56.3 | 82.1 | 0.00 | 0.00 | 0.00 | 42 | 1005.3 |
| 20260902220034 | 23 | 220 | 20.9 | 37.0 | 0.00 | 0.00 | 0.00 | 39 | 1004.7 |
| 20260902214521 | 23 | 200 | 25.7 | 41.8 | 0.00 | 0.00 | 0.00 | 38 | 1004.7 |
| 20260902213018 | 24 | 211 | 12.9 | 37.0 | 0.00 | 0.00 | 0.00 | 38 | 1004.8 |
| 20260902211515 | 25 | 180 | 16.1 | 35.4 | 0.00 | 0.00 | 0.00 | 36 | 1004.6 |
| 20260902210015 | 25 | 212 | 25.7 | 35.4 | 0.00 | 0.00 | 0.00 | 34 | 1004.6 |
| 20260902204512 | 26 | 191 | 27.4 | 41.8 | 0.00 | 0.00 | 0.00 | 34 | 1004.8 |
| 20260902203009 | 25 | 226 | 19.3 | 37.0 | 0.00 | 0.00 | 0.00 | 35 | 1004.9 |
| 20260902201506 | 24 | 216 | 20.9 | 29.0 | 0.00 | 0.00 | 0.00 | 36 | 1005.0 |
| 20260902200008 | 24 | 179 | 17.7 | 35.4 | 0.00 | 0.00 | 0.00 | 37 | 1005.4 |
| 20260902194551 | 23 | 195 | 20.9 | 32.2 | 0.00 | 0.00 | 0.00 | 39 | 1005.5 |
| 20260902193044 | 23 | 254 | 27.4 | 40.2 | 0.00 | 0.00 | 0.00 | 38 | 1005.8 |
| 20260902191521 | 23 | 225 | 20.9 | 33.8 | 0.00 | 0.00 | 0.00 | 41 | 1006.0 |
| 20260902190021 | 22 | 211 | 22.5 | 37.0 | 0.00 | 0.00 | 0.00 | 40 | 1006.2 |
| 20260902184501 | 22 | 240 | 24.1 | 37.0 | 0.00 | 0.00 | 0.00 | 42 | 1006.2 |
| 20260902183100 | 22 | 239 | 27.4 | 40.2 | 0.00 | 0.00 | 0.00 | 42 | 1006.4 |
| 20260902181541 | 22 | 208 | 25.7 | 35.4 | 0.00 | 0.00 | 0.00 | 42 | 1006.5 |
| 20260902180039 | 22 | 185 | 12.9 | 37.0 | 0.00 | 0.00 | 0.00 | 43 | 1006.6 |
| 20260902174520 | 22 | 252 | 29.0 | 37.0 | 0.00 | 0.00 | 0.00 | 44 | 1006.5 |
| 20260902173025 | 21 | 191 | 9.7 | 37.0 | 0.00 | 0.00 | 0.00 | 46 | 1006.7 |
| 20260902171600 | 20 | 193 | 19.3 | 32.2 | 0.00 | 0.00 | 0.00 | 49 | 1006.8 |
| 20260902170057 | 20 | 207 | 17.7 | 30.6 | 0.00 | 0.00 | 0.00 | 52 | 1006.9 |
| 20260902164536 | 20 | 200 | 19.3 | 27.4 | 0.00 | 0.00 | 0.00 | 52 | 1006.7 |
| 20260902163036 | 18 | 191 | 14.5 | 19.3 | 0.00 | 0.00 | 0.00 | 61 | 1007.0 |
| 20260902161512 | 16 | 207 | 3.2 | 9.7 | 0.00 | 0.00 | 0.00 | 66 | 1007.0 |
| 20260902160012 | 16 | 229 | 11.3 | 17.7 | 0.00 | 0.00 | 0.00 | 66 | 1007.1 |
| 20260902154559 | 15 | 193 | 4.8 | 12.9 | 0.00 | 0.00 | 0.00 | 68 | 1007.3 |
| 20260902153053 | 15 | 193 | 4.8 | 9.7 | 0.00 | 0.00 | 0.00 | 67 | 1007.3 |
| 20260902151539 | 16 | 246 | 6.4 | 11.3 | 0.00 | 0.00 | 0.00 | 66 | 1007.4 |
| 20260902150035 | 15 | 226 | 9.7 | 12.9 | 0.00 | 0.00 | 0.00 | 71 | 1007.5 |
| 20260902144515 | 14 | 269 | 3.2 | 9.7 | 0.00 | 0.00 | 0.00 | 71 | 1007.5 |
| 20260902143014 | 14 | 264 | 9.7 | 19.3 | 0.00 | 0.00 | 0.00 | 69 | 1007.1 |
| 20260902141551 | 15 | 273 | 14.5 | 22.5 | 0.00 | 0.00 | 0.00 | 65 | 1006.9 |
| 20260902140049 | 17 | 238 | 20.9 | 35.4 | 0.00 | 0.00 | 0.00 | 56 | 1006.7 |
| 20260902134535 | 16 | 285 | 24.1 | 35.4 | 0.00 | 0.00 | 0.00 | 58 | 1006.2 |
| 20260902133023 | 15 | 256 | 8.0 | 16.1 | 0.00 | 0.00 | 0.00 | 65 | 1006.4 |
| 20260902131503 | 16 | 333 | 8.0 | 14.5 | 0.00 | 0.00 | 0.00 | 61 | 1006.3 |
| 20260902130002 | 17 | 266 | 6.4 | 17.7 | 0.00 | 0.00 | 0.00 | 55 | 1006.5 |
| 20260902124551 | 16 | 278 | 19.3 | 53.1 | 0.00 | 0.00 | 0.00 | 59 | 1006.7 |
| 20260902123050 | 15 | 200 | 22.5 | 27.4 | 0.00 | 0.00 | 0.00 | 63 | 1006.6 |
| 20260902121548 | 15 | 193 | 16.1 | 25.7 | 0.00 | 0.00 | 0.00 | 63 | 1006.5 |
| 20260902120046 | 16 | 212 | 16.1 | 24.1 | 0.00 | 0.00 | 0.00 | 63 | 1006.3 |
| 20260902114546 | 16 | 202 | 19.3 | 27.4 | 0.00 | 0.00 | 0.00 | 62 | 1006.5 |
| 20260902113050 | 16 | 207 | 25.7 | 33.8 | 0.00 | 0.00 | 0.00 | 62 | 1006.2 |
| 20260902111540 | 16 | 197 | 19.3 | 24.1 | 0.00 | 0.00 | 0.00 | 60 | 1006.1 |
| 20260902110042 | 16 | 246 | 16.1 | 22.5 | 0.00 | 0.00 | 0.00 | 59 | 1005.8 |
| 20260902104541 | 17 | 218 | 9.7 | 14.5 | 0.00 | 0.00 | 0.00 | 57 | 1005.7 |
| 20260902103020 | 18 | 246 | 12.9 | 24.1 | 0.00 | 0.00 | 0.00 | 54 | 1005.4 |
| 20260902101502 | 18 | 282 | 16.1 | 25.7 | 0.00 | 0.00 | 0.00 | 52 | 1005.5 |